CAPE
0 0 33 285 59 43 38 21 12 0 0 41 36 71 24 42 8 0 417 427 173 751 1319 1368 1718 1698 1761 1919 2118 2075 2155 2045 2144 2071 1945 1788 1467 1621 1650 1651 1413 1226 1223 1119 1098 1233 1496 1707 1724
0 30 318 203 35 4 20 8 8 2 0 0 1 6 23 31 280 398 374 224 406 736 1149 1417 1560 1680 1856 2013 1913 2088 2053 2100 2198 2056 1856 1938 1877 1645 1588 1387 1355 1349 1250 1120 1066 1065 1208 1419 1499
0 363 200 98 50 17 3 7 20 7 35 22 0 0 26 148 286 242 306 235 468 737 932 1468 1336 1673 1833 2069 2211 1942 1861 2087 2155 2051 2159 2008 1966 1856 1773 1782 1800 1440 1347 1220 1162 1052 1126 1218 1036
99 491 248 116 50 47 5 7 0 5 9 0 0 3 47 104 98 182 256 466 383 565 997 1356 1319 1638 1815 1760 1931 1991 1116 1524 1661 1662 2040 1959 1700 1643 1631 1535 1334 942 891 982 1080 1069 1098 987 628
83 228 89 77 44 7 10 119 86 28 7 0 0 2 40 91 49 217 416 476 349 736 711 928 1364 1539 1572 1642 1373 1273 1318 1483 1591 1750 1869 1720 1542 1283 1059 1089 1133 868 838 811 962 1031 908 970 630
102 25 34 49 15 43 146 232 107 5 0 0 0 0 26 75 108 322 344 341 275 519 862 994 1393 1069 1367 1520 1380 1528 1696 1718 1609 1537 1410 1221 1053 797 617 605 641 799 614 549 494 1017 626 905 281
192 36 4 74 70 90 118 112 39 2 0 0 0 0 52 108 160 198 160 32 131 481 601 970 1015 704 1299 1563 1196 1090 1219 1197 1088 954 811 743 789 931 1072 1171 1349 1289 883 434 328 500 492 408 472
74 1 0 30 34 56 68 41 14 0 1 0 0 0 25 56 181 156 125 1 17 362 350 413 720 549 685 1010 1194 1067 1067 1038 988 973 940 990 1325 1485 1241 746 1055 1511 1263 549 615 568 235 329 682
284 13 18 41 99 27 24 59 36 3 0 0 0 0 0 6 123 68 39 0 0 13 23 14 35 155 155 388 689 943 1213 1052 1116 1153 1282 1180 950 953 1172 686 1386 1538 1683 1415 957 860 406 395 759
84 73 25 25 14 58 140 49 39 12 0 0 0 0 0 18 3 0 0 0 69 12 0 0 16 6 4 114 426 551 912 919 625 332 906 963 929 945 1286 1424 1067 1441 1712 1360 1071 957 1131 1027 611
55 31 40 27 0 10 172 251 137 3 0 0 0 0 0 0 0 0 0 0 77 0 13 34 72 68 25 66 333 591 766 498 0 650 836 811 721 793 594 34 3 16 695 860 687 490 608 449 546
64 30 24 21 88 105 142 273 232 147 0 0 0 0 0 0 0 0 0 0 36 0 0 24 36 63 31 385 427 784 798 464 485 173 570 505 177 14 167 0 0 6 191 612 492 490 421 476 436
46 40 35 44 134 138 38 5 101 77 0 0 0 0 0 0 0 0 0 0 10 0 0 0 30 46 250 549 738 824 822 991 322 368 240 5 5 71 278 0 0 95 87 115 577 718 968 974 913
85 90 72 55 73 79 219 135 18 96 0 0 0 0 0 0 0 0 0 0 0 0 0 0 66 210 292 267 439 646 835 874 50 431 306 344 499 385 204 31 88 210 346 93 212 525 992 1144 790
59 112 133 74 80 17 44 32 114 42 2 6 0 0 0 0 0 0 0 0 0 0 0 59 185 335 256 507 339 421 671 633 20 568 626 506 930 714 415 290 322 377 580 651 701 755 470 257 631
6 48 18 147 63 65 46 0 2 31 89 19 0 0 0 0 0 0 0 0 0 0 14 322 586 390 410 429 522 682 342 758 768 1121 1108 1258 1344 1405 733 381 447 775 840 811 1095 1026 522 585 736
0 0 10 63 123 45 9 7 0 16 64 7 0 0 0 0 0 0 0 0 0 0 89 259 428 396 310 252 562 989 741 893 768 844 1385 1397 1180 685 641 426 549 842 1080 871 868 793 946 633 572
39 35 80 67 127 9 0 0 0 0 0 4 29 0 0 0 0 0 0 0 0 0 18 70 136 54 11 144 697 1102 1024 573 997 979 962 987 1165 1033 1265 248 0 73 273 419 403 745 905 670 500
0 0 1 46 69 10 0 0 0 0 0 0 143 0 0 0 0 0 0 0 0 0 16 134 221 0 149 318 440 601 788 753 1021 1010 768 970 1520 1994 652 372 30 7 180 333 168 274 161 222 470
0 0 16 91 37 18 0 0 0 0 11 50 200 194 19 0 0 0 0 0 0 0 80 255 302 0 129 173 612 165 878 939 1113 645 668 1260 1663 1700 834 525 185 26 35 40 0 16 44 0 61
0 0 2 14 35 82 23 0 0 0 4 28 66 205 175 1 0 0 0 0 0 0 60 500 329 61 219 117 878 1171 1230 1046 797 466 753 1191 1544 1617 1838 1723 1542 612 0 0 0 0 0 0 0
0 0 0 94 12 1 59 2 9 0 12 23 45 127 211 172 0 0 0 0 0 0 85 622 417 244 53 296 678 815 1178 846 591 368 513 1265 1377 1400 1729 1770 1646 917 0 0 0 0 0 0 0
0 0 0 82 4 2 33 13 0 36 0 0 6 193 145 224 0 0 0 0 0 0 82 716 507 302 194 554 796 504 987 689 546 349 384 1179 1429 1918 1733 1286 1426 1039 422 3 0 0 0 0 0
0 0 0 17 0 0 0 0 0 27 19 33 4 54 116 174 74 2 0 0 0 0 16 803 534 316 178 396 782 1217 1313 719 603 490 612 978 1357 1431 1943 1859 1586 1262 777 548 0 0 0 0 0
0 0 0 2 15 0 0 0 0 10 45 97 104 86 159 209 155 24 0 0 0 0 11 638 571 498 428 223 750 1075 1581 1259 802 650 774 544 997 1345 1892 1996 1845 1694 1216 562 0 0 0 0 0
0 0 0 0 0 0 0 0 0 0 49 174 173 171 246 299 305 45 10 0 0 0 28 358 573 454 428 353 528 967 1476 1356 1131 917 938 779 667 1351 1838 2067 2048 1938 1959 1225 691 367 20 0 0
0 0 0 0 0 0 0 0 46 36 59 212 211 65 88 561 495 121 67 0 0 0 25 249 528 487 428 236 421 798 1286 1791 1258 1219 1030 917 871 728 1563 1890 2199 2303 2146 1798 1528 664 649 471 82
0 0 0 0 0 0 0 4 6 118 102 80 24 182 428 801 615 293 201 183 5 0 63 247 425 482 493 194 311 640 1019 1733 1441 1471 1199 1178 1300 1594 1337 1941 1924 2646 2442 2134 2099 1882 2072 1502 941
0 0 0 0 0 0 0 0 7 68 10 36 108 49 201 635 594 613 457 326 246 15 5 247 380 442 709 417 183 506 802 1358 1529 1207 1858 1475 1250 1579 1791 1738 1845 2206 2545 2399 2301 2031 2196 2225 1946
0 0 0 0 0 0 0 0 0 63 0 0 46 42 94 197 481 330 655 503 428 158 17 62 337 380 694 620 409 260 657 867 1261 1100 1263 1799 1617 1735 2083 1777 1914 2085 2134 2538 2448 2261 2170 2251 2273
CIN
0 0 -149 -44 -51 -86 -9 -10 -33 0 0 -113 -117 -72 -135 -129 -72 0 -46 -34 -103 -27 -1 -2 0 0 0 0 0 0 0 0 0 0 0 0 0 0 0 0 0 0 0 0 -4 -11 -14 -1 -1
0 -102 -27 -53 -34 -16 -6 -25 -35 -25 0 0 -74 -171 -151 -173 -111 -72 -56 -78 -64 -39 -3 -1 -1 0 0 -2 -3 0 0 0 0 0 0 0 0 0 0 0 0 0 0 0 0 -3 -5 0 -2
0 -21 -18 -76 -39 -7 -12 -35 -99 -89 -98 -57 0 0 -230 -121 -70 -91 -69 -80 -55 -35 -15 0 -2 0 0 0 0 0 0 0 0 0 0 0 0 0 0 0 0 0 0 0 0 0 -2 -7 -14
-44 -1 -16 -67 -13 -8 -45 -59 -3 -119 -118 0 0 -75 -168 -102 -117 -127 -85 -45 -67 -46 -14 0 0 0 0 0 0 0 -38 -10 -1 0 0 0 0 0 0 0 0 0 0 -3 -2 -7 -9 -19 -27
-63 -15 -30 -30 -18 -26 -32 -40 -64 -89 -138 0 0 -66 -176 -104 -134 -100 -49 -54 -93 -32 -38 -20 0 0 0 -1 -20 -25 -28 -15 -4 0 0 0 0 -11 -21 -17 -9 -12 -4 -4 -1 -19 -25 -26 -31
-12 -108 -25 -20 -16 -20 -23 -44 -61 -62 0 0 0 0 -175 -102 -101 -50 -52 -59 -99 -81 -27 -18 0 -20 -8 -6 -9 -13 -2 -1 -10 -15 -9 -8 -11 -23 -33 -43 -31 -10 -9 -8 -11 -10 -37 -28 -57
-20 -42 -22 -81 -25 -39 -37 -56 -70 -22 0 0 0 0 -143 -74 -67 -68 -73 -130 -124 -80 -65 -27 -16 -56 -9 -1 -19 -46 -29 -31 -47 -47 -53 -47 -37 -14 -6 -5 -1 -2 -4 -13 -21 -21 -56 -67 -61
-90 -116 -3 -112 -14 -21 -35 -46 -73 0 -58 0 0 0 -205 -114 -68 -52 -65 -10 -24 -86 -89 -87 -48 -74 -68 -38 -28 -44 -45 -53 -55 -52 -39 -32 -15 -5 -7 -18 -8 -1 -4 -11 -17 -43 -104 -91 -60
-123 -95 -55 -76 -24 -33 -32 -38 -94 -103 0 0 0 0 0 -220 -93 -70 -97 0 0 -43 -122 -125 -114 -139 -148 -93 -64 -49 -33 -40 -38 -46 -22 -16 -40 -38 -26 -42 -10 -10 -3 -3 -9 -32 -81 -81 -59
-104 -68 -82 -109 -77 -76 -66 -37 -55 -114 -54 0 0 0 0 -203 -87 0 0 0 -70 -34 0 0 -197 -92 -161 -129 -92 -78 -57 -59 -92 -135 -52 -60 -55 -51 -35 -45 -61 -43 -28 -37 -32 -58 -53 -67 -97
-94 -49 -105 -146 0 -136 -79 -29 -53 -143 0 0 0 0 0 0 0 0 0 0 -56 0 -149 -157 -131 -132 -147 -128 -82 -79 -65 -93 0 -82 -83 -94 -97 -83 -93 -172 -14 -163 -97 -76 -86 -110 -99 -107 -96
-44 -74 -88 -104 -114 -99 -67 -54 -46 -35 0 0 0 0 0 0 0 0 0 0 -59 0 0 -158 -161 -150 -142 -41 -57 -55 -57 -74 -110 -160 -129 -114 -146 -196 -160 0 0 -218 -186 -103 -114 -95 -88 -85 -86
-30 -18 -62 -129 -136 -49 -38 -106 -69 -32 0 0 0 0 0 0 0 0 0 0 -56 0 0 0 -173 -166 -72 -41 -50 -57 -55 -45 -114 -114 -189 -130 -167 -180 -165 0 0 -189 -241 -257 -127 -89 -76 -74 -70
-86 -96 -152 -124 -113 -142 -46 -34 -74 -13 -8 0 0 0 0 0 0 0 0 0 0 0 0 0 -117 -71 -49 -43 -46 -49 -58 -58 -252 -99 -166 -133 -104 -114 -208 -183 -196 -167 -162 -307 -212 -107 -93 -85 -88
-48 -67 -114 -117 -120 -102 -109 -32 -9 -55 -33 -51 0 0 0 0 0 0 0 0 0 0 0 -84 -61 -51 -53 -29 -57 -57 -56 -58 -101 -79 -68 -94 -74 -95 -132 -125 -97 -122 -142 -138 -105 -104 -141 -181 -93
-7 -48 -42 -135 -173 -153 -153 -7 -208 -117 -63 -27 0 0 0 0 0 0 0 0 0 0 -14 -41 -35 -43 -43 -36 -45 -43 -70 -54 -54 -33 -41 -53 -62 -67 -87 -123 -104 -88 -95 -93 -89 -74 -99 -110 -57
0 0 -43 -101 -178 -219 -195 -109 0 -150 -64 -68 0 0 0 0 0 0 0 0 0 0 -73 -61 -41 -40 -38 -37 -32 -34 -38 -49 -54 -38 -32 -26 -21 -65 -71 -131 -106 -78 -80 -85 -67 -62 -59 -58 -62
-16 -31 -37 -40 -174 -235 -73 0 0 0 0 -34 -89 0 0 0 0 0 0 0 0 0 -19 -77 -71 -89 -22 -52 -37 -29 -31 -36 -45 -43 -34 -24 -22 -26 -32 -152 0 -215 -144 -104 -86 -64 -64 -69 -83
0 0 -8 -75 -183 -143 -1 -55 0 0 0 0 -21 0 0 0 0 0 0 0 0 0 -121 -72 -82 -1 -72 -36 -34 -26 -26 -28 -43 -45 -40 -37 -28 -26 -86 -126 -216 -48 -131 -106 -121 -112 -159 -121 -114
0 0 -24 -90 -198 -203 0 0 0 0 -230 -187 -113 -46 -75 0 0 0 0 0 0 0 -163 -99 -66 0 -59 -52 -40 -42 -37 -36 -41 -55 -55 -33 -21 -32 -60 -103 -152 -253 -211 -188 0 -168 -249 0 -232
0 0 -19 -30 -170 -196 -207 0 0 0 -210 -251 -182 -84 -60 -21 0 0 0 0 0 0 -165 -93 -95 -117 -81 -67 -56 -33 -46 -49 -43 -57 -54 -39 -25 -26 -27 -37 -52 -128 0 0 0 0 0 0 0
0 0 0 -50 -74 -48 -156 -24 -72 0 -126 -209 -219 -132 -111 -92 0 0 0 0 0 0 -179 -82 -89 -76 -117 -83 -41 -37 -24 -25 -49 -56 -69 -38 -23 -20 -22 -32 -43 -109 0 0 0 0 0 0 0
0 0 0 -35 -36 -11 -91 -89 0 -126 -5 0 -280 -218 -150 -154 -18 0 0 0 0 0 -141 -78 -89 -66 -81 -63 -39 -50 -36 -35 -51 -66 -70 -37 -27 -20 -21 -48 -52 -90 -172 -23 0 0 0 0 0
0 0 0 -16 0 0 0 -19 0 -115 -96 -188 -233 -219 -195 -180 -211 -39 0 0 0 0 -222 -95 -95 -72 -85 -65 -45 -32 -40 -46 -37 -58 -54 -64 -38 -40 -21 -30 -56 -92 -173 -212 0 0 0 0 0
0 0 0 -4 -8 0 0 0 0 -85 -105 -117 -187 -151 -170 -225 -247 -248 0 0 0 0 -262 -145 -134 -96 -69 -99 -44 -44 -32 -38 -31 -51 -50 -93 -70 -52 -28 -34 -48 -69 -133 -240 0 0 0 0 0
0 0 0 0 0 0 0 0 0 -4 -80 -167 -147 -195 -170 -172 -170 -268 -308 0 0 0 -388 -219 -179 -160 -105 -116 -95 -50 -51 -40 -42 -51 -50 -64 -90 -56 -50 -46 -53 -68 -86 -181 -268 -337 -412 0 0
0 0 0 0 0 0 0 0 -62 -153 -113 -108 -100 -172 -162 -143 -185 -269 -262 0 0 0 -379 -281 -223 -203 -165 -171 -117 -65 -52 -45 -42 -64 -67 -71 -77 -99 -58 -53 -57 -65 -82 -133 -183 -297 -302 -349 -448
0 0 0 0 0 0 0 -65 -37 -85 -78 -86 -139 -118 -102 -141 -173 -222 -237 -303 -145 0 -411 -300 -259 -227 -201 -243 -169 -112 -64 -50 -43 -41 -73 -80 -55 -41 -79 -50 -69 -52 -78 -112 -127 -163 -165 -230 -305
0 0 0 0 0 0 0 0 -69 -58 -30 -61 -46 -142 -162 -120 -114 -150 -215 -235 -321 -372 -101 -331 -289 -237 -189 -220 -244 -148 -104 -61 -50 -50 -32 -77 -94 -58 -72 -81 -77 -78 -76 -97 -114 -149 -150 -162 -182
0 0 0 0 0 0 0 0 0 -30 0 0 -187 -222 -250 -215 -166 -176 -143 -243 -300 -416 -470 -418 -325 -280 -200 -207 -239 -237 -122 -107 -66 -58 -61 -46 -70 -76 -56 -82 -74 -77 -97 -79 -104 -131 -150 -156 -166
Wind_Speed
26 26 19 16 18 16 19 13 22 24 26 24 23 24 25 18 19 22 28 26 28 28 27 26 26 26 27 26 26 25 25 22 16 21 23 23 21 19 18 16 12 13 11 10 10 9 16 21 23
28 22 13 17 22 26 18 29 19 25 29 27 26 24 23 22 23 28 28 28 28 28 27 27 26 27 27 27 27 29 29 27 12 26 24 25 24 22 20 12 8 9 9 6 4 19 17 15 27
24 19 14 20 22 23 31 26 26 28 24 21 20 24 22 26 28 28 29 29 29 28 28 27 27 27 27 28 29 27 25 24 26 28 30 26 24 23 18 7 2 4 3 5 17 24 25 24 26
19 19 18 24 27 22 26 24 25 25 26 24 26 23 25 24 27 30 31 30 29 29 28 28 28 28 28 29 29 26 26 26 26 28 28 22 22 26 26 18 16 12 10 13 19 26 27 27 29
16 16 21 20 16 12 17 23 20 19 22 23 23 25 26 25 30 32 30 30 29 29 29 29 29 29 29 30 30 29 28 28 29 28 27 27 25 22 19 15 14 14 17 19 22 26 28 29 29
10 14 13 20 8 10 15 17 19 20 22 23 24 27 27 30 31 31 30 30 30 30 30 29 29 29 30 30 29 28 26 27 27 27 26 23 21 21 19 19 18 14 19 22 24 28 27 28 27
10 6 9 18 14 8 13 17 18 22 22 22 26 28 28 29 30 31 31 30 30 31 30 29 29 30 30 30 29 27 26 27 27 27 25 25 23 21 20 19 18 18 20 24 26 30 29 27 26
5 9 17 18 8 6 16 18 21 22 21 26 26 23 28 29 31 32 31 30 31 31 30 30 30 30 29 29 27 25 25 26 26 26 25 25 24 22 20 19 19 18 21 24 29 31 31 30 29
9 14 8 20 20 11 6 15 21 19 23 23 18 26 29 31 32 31 30 30 31 31 30 30 30 30 29 27 26 25 25 25 24 22 22 22 23 23 23 23 23 21 24 26 29 30 31 30 28
13 14 16 19 20 15 17 17 11 15 23 20 23 26 27 32 31 30 30 29 30 31 31 31 31 30 29 26 27 26 26 25 23 21 22 23 23 23 26 25 23 22 24 27 28 30 30 29 27
15 15 15 14 19 15 16 14 16 14 17 21 23 27 28 28 29 29 28 28 31 32 32 31 31 30 29 26 28 27 26 25 23 23 25 26 25 26 27 24 23 23 24 27 29 31 30 28 27
17 15 9 7 10 7 13 19 15 18 12 21 24 26 26 26 26 27 28 29 31 31 32 32 31 30 29 27 28 27 27 26 24 22 23 26 29 25 25 21 25 24 26 29 30 29 28 27 25
17 18 8 8 13 9 8 16 16 14 13 18 19 22 24 24 25 27 29 28 31 31 32 32 32 31 27 30 27 27 25 24 24 23 27 25 26 26 25 23 24 26 27 28 29 27 27 26 24
12 9 10 11 11 13 10 14 16 12 7 15 21 20 22 25 24 27 29 29 29 30 31 32 31 30 29 29 28 26 25 25 24 24 25 24 24 25 24 25 24 24 26 25 27 27 25 23 22
10 11 9 12 11 17 14 16 13 15 14 17 19 18 23 26 24 26 28 28 29 28 29 32 32 30 30 28 29 27 27 25 26 24 26 25 23 25 25 26 25 25 25 23 24 24 24 23 23
6 10 16 16 17 16 21 24 16 7 20 27 15 19 24 27 25 25 27 24 26 27 24 24 28 31 28 24 28 24 26 26 27 27 26 25 26 25 27 26 26 24 24 22 22 23 24 24 24
14 16 13 17 19 19 22 17 9 4 6 28 21 19 24 25 25 25 25 23 25 26 23 19 22 31 31 27 23 26 26 28 28 27 22 16 19 28 28 27 25 26 24 23 21 22 23 22 22
10 11 14 15 16 20 19 13 9 14 4 12 21 16 21 21 25 25 25 22 24 25 23 20 23 25 30 30 22 20 28 29 29 28 26 19 12 23 26 24 25 25 24 2 8 15 19 21 24
23 24 22 17 17 18 16 12 13 12 5 8 5 12 17 15 28 23 25 22 22 23 23 25 24 24 26 30 23 13 29 30 28 26 25 25 20 23 25 26 24 23 26 25 22 22 21 15 25
30 25 18 14 14 17 16 15 12 10 16 6 4 8 13 9 25 25 24 23 22 22 22 24 28 23 27 30 30 12 25 28 27 24 23 23 22 25 26 25 25 25 27 26 23 23 23 21 21
34 24 17 18 11 18 17 21 14 4 24 18 15 22 31 22 31 28 25 25 20 20 22 22 28 26 25 33 20 9 13 18 23 23 23 25 24 25 25 24 24 24 26 27 25 24 25 25 21
33 27 22 9 7 20 12 18 14 27 31 23 27 34 32 36 34 31 27 24 23 20 19 19 24 26 31 28 31 4 17 25 25 23 24 25 24 25 24 24 25 25 25 27 26 24 24 25 25
38 29 20 11 18 21 18 19 19 12 16 25 23 34 34 34 35 34 28 25 24 18 17 19 23 24 32 29 21 27 25 27 25 25 24 26 25 25 25 24 24 25 26 26 27 26 25 24 23
36 32 26 21 22 25 30 17 21 15 9 23 32 34 34 34 34 33 28 24 23 23 16 18 24 26 29 30 31 27 30 32 27 27 25 26 26 23 26 24 24 25 26 27 27 27 25 24 22
35 28 30 23 23 27 18 23 31 22 33 29 26 38 38 35 33 33 29 28 26 25 24 20 23 27 28 30 33 32 32 29 27 27 27 28 28 24 26 24 25 26 27 26 27 27 25 24 21
34 29 30 28 22 27 17 27 31 28 27 35 16 32 40 40 39 35 33 30 29 29 27 23 22 23 27 27 33 35 28 7 22 26 27 29 28 23 23 22 25 27 28 27 27 26 24 22 20
34 35 30 31 28 28 22 22 24 19 6 13 8 25 12 37 34 38 35 31 28 28 29 27 23 21 24 23 24 35 25 8 7 22 26 29 30 27 25 24 23 26 28 27 26 25 24 22 20
39 31 31 29 35 33 29 21 18 13 12 16 19 23 8 19 35 36 36 34 28 27 25 27 26 23 20 18 22 22 29 15 15 8 23 29 29 28 24 26 25 24 25 26 27 27 24 23 22
37 37 33 30 30 36 37 31 15 8 10 9 22 14 14 27 29 38 29 30 24 23 22 21 22 24 21 15 15 17 16 14 22 21 17 9 20 22 20 23 24 24 20 20 11 26 23 21 23
32 40 37 39 38 28 28 30 22 8 6 6 9 9 14 29 38 36 36 25 22 19 22 18 17 18 21 16 12 15 15 13 18 35 35 23 19 12 4 22 22 21 21 15 14 13 11 3 9
Wind_Direction
127 155 189 210 206 192 168 181 79 76 118 90 80 94 92 101 107 95 109 106 106 107 109 100 93 92 99 95 93 81 82 67 170 62 70 70 62 58 56 50 43 45 40 40 40 187 179 168 160
129 165 225 195 179 160 169 108 68 81 97 79 64 87 89 103 88 97 102 109 107 107 105 102 95 99 97 100 97 109 122 135 175 85 72 75 70 66 59 40 31 35 36 32 31 166 174 182 149
125 116 203 183 181 163 118 96 89 96 109 107 100 75 103 97 95 109 109 108 107 105 103 103 100 103 99 106 120 136 146 146 139 119 103 81 74 67 56 18 283 245 259 214 174 153 152 156 152
128 154 172 171 157 172 121 86 86 82 83 74 87 88 98 96 108 109 110 107 104 106 107 106 104 107 105 116 129 144 144 143 142 132 91 66 64 84 126 171 181 200 213 197 175 151 147 145 143
187 207 177 188 197 70 76 90 76 58 62 74 77 99 103 91 101 108 107 109 105 109 110 111 109 112 116 128 133 137 137 136 129 118 99 104 132 146 160 182 188 194 190 188 176 157 147 142 141
236 208 191 182 208 56 66 72 64 56 65 65 69 89 103 104 107 111 108 109 108 111 112 112 113 119 127 135 138 138 143 138 129 119 127 146 151 151 156 155 166 193 180 176 174 160 151 150 154
275 249 229 200 218 51 62 69 72 78 81 84 95 94 108 112 112 111 107 105 111 113 112 113 121 125 132 139 141 143 147 138 130 128 137 139 143 147 148 150 152 165 167 163 167 157 154 160 159
24 310 192 191 232 27 91 93 93 90 82 95 92 105 119 120 115 113 109 105 113 116 117 121 132 130 143 147 149 155 152 145 141 134 137 137 138 143 146 146 146 155 157 159 152 153 153 150 152
292 354 358 184 204 251 38 76 103 87 97 110 112 108 114 119 115 113 109 110 114 122 125 130 134 138 146 158 161 161 155 151 149 149 146 146 145 143 140 138 138 140 142 145 146 148 152 151 150
321 7 116 144 183 251 252 245 57 73 109 87 86 105 104 114 117 116 118 116 117 123 130 131 135 143 147 158 158 157 155 155 153 159 153 147 146 146 141 140 142 141 141 141 145 147 147 150 152
307 323 279 115 237 259 266 262 240 88 99 105 107 115 113 115 117 120 121 119 123 129 131 136 141 145 145 160 151 154 152 148 148 152 148 146 147 148 144 148 149 151 147 144 142 141 143 147 148
319 309 26 51 319 20 275 242 252 239 97 109 108 116 120 118 119 123 122 125 130 133 136 138 146 150 152 153 152 151 150 149 156 155 160 149 137 151 148 157 151 154 150 144 142 143 146 149 150
318 300 338 358 334 11 25 302 275 280 111 107 106 115 124 123 124 126 129 125 133 135 142 143 144 151 156 146 159 153 153 157 159 157 144 145 155 154 146 150 158 155 151 149 145 148 148 149 150
355 39 39 22 4 335 344 333 281 264 277 106 119 121 127 136 130 131 134 133 131 134 136 147 140 151 156 148 144 148 159 157 161 159 163 155 150 155 163 151 158 155 152 156 143 145 149 152 154
27 33 330 315 347 330 5 326 321 291 248 127 127 124 135 145 137 137 139 134 133 128 128 138 145 150 158 159 150 150 153 164 159 165 160 154 159 158 154 152 159 155 158 159 154 151 152 151 145
19 322 299 303 308 330 310 306 315 329 240 204 130 133 145 151 145 140 140 127 129 126 120 118 129 169 177 183 156 172 162 161 155 158 155 151 152 151 146 148 161 162 163 167 168 161 155 147 135
309 309 320 295 299 317 306 316 339 39 237 212 168 140 151 153 148 144 138 129 129 131 123 115 122 147 175 184 188 169 164 151 153 157 169 178 173 125 128 136 144 152 155 156 166 164 163 160 154
305 335 335 297 306 320 324 313 85 109 153 147 182 149 149 151 151 146 141 135 133 133 130 121 128 135 147 173 201 203 175 152 151 150 155 179 202 157 131 105 114 128 118 7 233 190 175 167 142
270 283 300 293 301 323 326 321 279 140 149 271 192 154 154 151 156 147 145 140 137 136 133 135 133 134 136 161 205 227 171 144 149 141 133 126 173 155 139 132 132 137 141 159 171 166 165 179 156
263 282 303 297 305 310 308 300 307 97 150 138 208 235 239 218 154 153 148 145 144 140 137 139 148 136 146 161 171 238 133 138 137 125 121 125 161 142 136 139 137 140 140 156 169 167 165 169 171
258 279 291 290 301 306 313 289 303 305 162 145 243 236 221 156 163 157 153 152 147 144 142 140 150 145 146 161 208 248 104 112 127 128 129 149 150 142 143 149 144 145 146 143 164 168 169 172 178
258 264 287 286 318 292 309 282 296 199 192 163 175 193 178 199 167 163 158 154 153 151 145 141 147 150 160 151 193 252 122 139 145 134 139 135 133 150 147 148 147 150 160 156 167 173 173 170 156
245 262 281 281 292 284 290 288 284 299 259 176 163 191 182 183 171 165 161 159 156 153 152 148 150 151 160 156 142 208 150 152 148 150 135 151 163 159 151 142 129 146 157 170 174 173 171 167 164
247 263 275 272 281 272 263 291 278 276 176 169 187 200 191 182 174 168 161 158 158 158 158 154 156 157 161 163 167 164 169 171 154 156 147 152 174 193 165 146 135 152 159 175 172 172 169 166 169
248 257 262 266 266 264 270 275 254 183 202 186 173 192 202 192 180 169 162 161 160 160 161 161 160 164 166 169 176 177 184 165 160 158 157 163 170 197 165 148 153 161 175 186 177 176 173 169 172
245 250 253 259 264 269 277 269 263 208 198 201 162 182 196 194 193 176 171 166 165 166 165 163 166 166 169 170 177 183 226 239 155 160 162 170 167 150 147 142 154 168 179 191 188 187 175 179 182
246 248 255 263 271 268 277 276 288 286 236 245 190 247 247 182 178 181 175 169 164 164 168 168 167 169 171 171 172 182 235 235 160 158 164 177 178 174 167 159 150 160 167 198 199 197 184 183 187
245 250 252 257 256 258 264 275 288 283 263 258 248 250 191 176 175 179 179 176 169 167 163 167 170 171 172 177 176 176 179 243 247 247 167 180 184 190 173 173 168 162 162 173 216 206 209 200 204
244 244 250 258 261 256 256 265 283 279 268 273 264 248 256 217 212 199 176 179 173 170 164 163 166 171 173 182 191 184 187 237 247 250 254 242 253 260 167 170 172 172 162 162 143 242 254 183 199
250 248 251 250 251 259 258 264 272 248 248 293 301 272 270 243 232 225 190 180 176 173 172 169 166 170 174 177 204 204 201 220 244 240 238 255 262 268 246 170 174 175 175 167 168 168 303 335 157